| time (UTC) | temp F | wind direction | speed MPH | gust MPH | rain 1hr in | rain 24hr in | rain mn in | humidity % | barometer mb |
| 20260510130043 | 57 | 113 | 3.0 | 9.0 | 0.00 | 0.28 | 0.01 | 88 | 1011.8 |
| 20260510124540 | 56 | 209 | 5.0 | 12.0 | 0.00 | 0.28 | 0.01 | 90 | 1011.8 |
| 20260510123038 | 56 | 161 | 1.0 | 9.0 | 0.00 | 0.28 | 0.01 | 91 | 1012.0 |
| 20260510121535 | 55 | 154 | 0.0 | 2.0 | 0.00 | 0.28 | 0.01 | 92 | 1012.3 |
| 20260510120035 | 54 | 155 | 2.0 | 6.0 | 0.00 | 0.28 | 0.01 | 92 | 1012.4 |
| 20260510114534 | 54 | 165 | 0.0 | 5.0 | 0.00 | 0.31 | 0.01 | 92 | 1012.5 |
| 20260510113031 | 54 | 165 | 0.0 | 3.0 | 0.00 | 0.31 | 0.01 | 92 | 1012.4 |
| 20260510111533 | 54 | 173 | 1.0 | 4.0 | 0.00 | 0.31 | 0.01 | 92 | 1012.3 |
| 20260510110030 | 53 | 192 | 0.0 | 0.0 | 0.01 | 0.31 | 0.01 | 92 | 1012.4 |
| 20260510104527 | 53 | 192 | 0.0 | 0.0 | 0.01 | 0.32 | 0.01 | 92 | 1012.4 |
| 20260510103027 | 53 | 192 | 0.0 | 1.0 | 0.01 | 0.32 | 0.01 | 92 | 1012.2 |
| 20260510101526 | 53 | 192 | 0.0 | 1.0 | 0.01 | 0.32 | 0.01 | 92 | 1012.3 |
| 20260510100025 | 52 | 192 | 0.0 | 0.0 | 0.00 | 0.31 | 0.00 | 92 | 1012.1 |
| 20260510094537 | 52 | 192 | 0.0 | 2.0 | 0.00 | 0.31 | 0.00 | 91 | 1012.0 |
| 20260510093022 | 52 | 192 | 0.0 | 2.0 | 0.00 | 0.31 | 0.00 | 91 | 1011.8 |
| 20260510091525 | 52 | 192 | 0.0 | 3.0 | 0.00 | 0.31 | 0.00 | 91 | 1011.5 |
| 20260510090021 | 52 | 192 | 0.0 | 0.0 | 0.00 | 0.31 | 0.00 | 91 | 1011.4 |
| 20260510084521 | 52 | 192 | 0.0 | 0.0 | 0.00 | 0.31 | 0.00 | 91 | 1011.7 |
| 20260510083030 | 52 | 192 | 0.0 | 0.0 | 0.00 | 0.31 | 0.00 | 91 | 1011.5 |
| 20260510081519 | 52 | 192 | 0.0 | 3.0 | 0.00 | 0.31 | 0.00 | 91 | 1011.5 |
| 20260510080024 | 51 | 195 | 0.0 | 2.0 | 0.00 | 0.31 | 0.00 | 91 | 1011.6 |
| 20260510074517 | 52 | 198 | 0.0 | 2.0 | 0.00 | 0.31 | 0.00 | 91 | 1011.6 |
| 20260510073020 | 52 | 172 | 0.0 | 2.0 | 0.00 | 0.31 | 0.00 | 91 | 1011.4 |
| 20260510071514 | 52 | 178 | 0.0 | 4.0 | 0.00 | 0.31 | 0.00 | 91 | 1011.2 |
| 20260510070013 | 52 | 200 | 0.0 | 3.0 | 0.00 | 0.31 | 0.00 | 91 | 1011.1 |
| 20260510064511 | 52 | 177 | 0.0 | 2.0 | 0.00 | 0.31 | 0.00 | 90 | 1011.0 |
| 20260510063015 | 53 | 178 | 0.0 | 4.0 | 0.00 | 0.31 | 0.00 | 90 | 1010.9 |
| 20260510061511 | 53 | 210 | 1.0 | 4.0 | 0.00 | 0.31 | 0.00 | 90 | 1011.1 |
| 20260510060016 | 53 | 175 | 0.0 | 5.0 | 0.00 | 0.31 | 0.00 | 90 | 1011.0 |
| 20260510054510 | 53 | 162 | 1.0 | 6.0 | 0.00 | 0.31 | 0.00 | 90 | 1011.1 |
| 20260510053008 | 53 | 195 | 1.0 | 6.0 | 0.00 | 0.31 | 0.00 | 90 | 1011.1 |
| 20260510051507 | 53 | 183 | 0.0 | 4.0 | 0.00 | 0.31 | 0.00 | 90 | 1010.9 |
| 20260510050006 | 53 | 169 | 0.0 | 4.0 | 0.00 | 0.31 | 0.00 | 90 | 1011.0 |
| 20260510044505 | 53 | 158 | 1.0 | 8.0 | 0.00 | 0.31 | 0.00 | 89 | 1010.9 |
| 20260510043002 | 53 | 202 | 1.0 | 7.0 | 0.00 | 0.31 | 0.00 | 89 | 1010.9 |
| 20260510041558 | 52 | 159 | 2.0 | 6.0 | 0.00 | 0.31 | 0.00 | 89 | 1011.1 |
| 20260510040057 | 52 | 164 | 1.0 | 6.0 | 0.00 | 0.31 | 0.00 | 89 | 1011.3 |
| 20260510034555 | 51 | 156 | 1.0 | 5.0 | 0.00 | 0.31 | 0.31 | 89 | 1011.4 |
| 20260510033104 | 51 | 166 | 2.0 | 4.0 | 0.00 | 0.31 | 0.31 | 90 | 1011.3 |
| 20260510031553 | 51 | 169 | 0.0 | 2.0 | 0.00 | 0.31 | 0.31 | 89 | 1011.6 |
| 20260510024554 | 51 | 169 | 0.0 | 1.0 | 0.03 | 0.31 | 0.31 | 89 | 1011.7 |
| 20260510023053 | 51 | 169 | 0.0 | 3.0 | 0.03 | 0.31 | 0.31 | 89 | 1011.7 |
| 20260510021556 | 51 | 169 | 0.0 | 1.0 | 0.03 | 0.31 | 0.31 | 89 | 1011.9 |
| 20260510020050 | 51 | 169 | 0.0 | 5.0 | 0.02 | 0.30 | 0.30 | 88 | 1012.2 |
| 20260510014550 | 51 | 178 | 0.0 | 3.0 | 0.00 | 0.28 | 0.28 | 88 | 1012.4 |
| 20260510013049 | 51 | 178 | 0.0 | 1.0 | 0.00 | 0.28 | 0.28 | 88 | 1012.3 |
| 20260510011549 | 51 | 178 | 0.0 | 2.0 | 0.01 | 0.28 | 0.28 | 88 | 1012.4 |
| 20260510010048 | 51 | 178 | 0.0 | 2.0 | 0.01 | 0.28 | 0.28 | 88 | 1012.5 |
| 20260510004550 | 51 | 195 | 0.0 | 4.0 | 0.02 | 0.28 | 0.28 | 88 | 1012.6 |
| 20260510003048 | 52 | 202 | 1.0 | 5.0 | 0.02 | 0.28 | 0.28 | 88 | 1012.7 |
| 20260510001547 | 52 | 148 | 1.0 | 5.0 | 0.01 | 0.27 | 0.27 | 88 | 1012.7 |
| 20260510000048 | 52 | 173 | 1.0 | 7.0 | 0.02 | 0.27 | 0.27 | 88 | 1012.6 |
| 20260509234545 | 53 | 145 | 1.0 | 7.0 | 0.01 | 0.26 | 0.26 | 89 | 1012.7 |
| 20260509233045 | 53 | 140 | 2.0 | 5.0 | 0.01 | 0.26 | 0.26 | 89 | 1012.8 |
| 20260509231545 | 53 | 172 | 0.0 | 6.0 | 0.02 | 0.26 | 0.26 | 88 | 1012.8 |
| 20260509230044 | 53 | 178 | 0.0 | 3.0 | 0.02 | 0.25 | 0.25 | 89 | 1012.7 |
| 20260509224544 | 53 | 195 | 1.0 | 4.0 | 0.06 | 0.25 | 0.25 | 89 | 1012.7 |
| 20260509223043 | 53 | 208 | 2.0 | 6.0 | 0.10 | 0.25 | 0.25 | 89 | 1012.5 |
| 20260509221542 | 53 | 171 | 2.0 | 8.0 | 0.15 | 0.24 | 0.24 | 89 | 1012.5 |
| 20260509220043 | 53 | 174 | 2.0 | 9.0 | 0.16 | 0.23 | 0.23 | 88 | 1012.3 |
| 20260509214541 | 54 | 219 | 3.0 | 6.0 | 0.12 | 0.19 | 0.19 | 88 | 1012.2 |
| 20260509213043 | 54 | 173 | 1.0 | 4.0 | 0.11 | 0.15 | 0.15 | 87 | 1012.2 |
| 20260509211540 | 54 | 203 | 4.0 | 10.0 | 0.05 | 0.09 | 0.09 | 86 | 1012.1 |
| 20260509210053 | 55 | 177 | 1.0 | 8.0 | 0.04 | 0.07 | 0.07 | 85 | 1012.1 |
| 20260509204542 | 55 | 192 | 1.0 | 7.0 | 0.04 | 0.07 | 0.07 | 85 | 1011.7 |
| 20260509203041 | 55 | 214 | 2.0 | 5.0 | 0.01 | 0.04 | 0.04 | 84 | 1011.6 |
| 20260509201537 | 56 | 173 | 0.0 | 7.0 | 0.01 | 0.04 | 0.04 | 83 | 1011.7 |
| 20260509200036 | 57 | 184 | 3.0 | 12.0 | 0.00 | 0.03 | 0.03 | 79 | 1011.8 |
| 20260509194533 | 58 | 149 | 3.0 | 13.0 | 0.00 | 0.03 | 0.03 | 77 | 1011.8 |
| 20260509193039 | 59 | 185 | 7.0 | 16.0 | 0.00 | 0.03 | 0.03 | 76 | 1011.7 |
| 20260509191538 | 59 | 173 | 4.0 | 11.0 | 0.00 | 0.03 | 0.03 | 75 | 1011.9 |
| 20260509190030 | 59 | 188 | 2.0 | 13.0 | 0.00 | 0.03 | 0.03 | 73 | 1011.9 |
| 20260509184533 | 59 | 196 | 3.0 | 12.0 | 0.00 | 0.03 | 0.03 | 73 | 1012.0 |
| 20260509183031 | 59 | 180 | 4.0 | 15.0 | 0.00 | 0.03 | 0.03 | 72 | 1012.1 |
| 20260509181527 | 60 | 136 | 5.0 | 12.0 | 0.00 | 0.03 | 0.03 | 72 | 1012.0 |
| 20260509180025 | 59 | 173 | 4.0 | 16.0 | 0.00 | 0.03 | 0.03 | 74 | 1012.0 |
| 20260509174525 | 58 | 152 | 6.0 | 12.0 | 0.00 | 0.03 | 0.03 | 74 | 1012.3 |
| 20260509173024 | 57 | 211 | 3.0 | 6.0 | 0.00 | 0.03 | 0.03 | 75 | 1012.5 |
| 20260509171522 | 56 | 172 | 4.0 | 11.0 | 0.00 | 0.03 | 0.03 | 75 | 1013.0 |
| 20260509170022 | 57 | 175 | 2.0 | 8.0 | 0.00 | 0.03 | 0.03 | 74 | 1012.9 |
| 20260509164533 | 57 | 190 | 6.0 | 11.0 | 0.00 | 0.03 | 0.03 | 73 | 1012.9 |
| 20260509163020 | 57 | 169 | 3.0 | 10.0 | 0.00 | 0.03 | 0.03 | 73 | 1012.8 |
| 20260509161519 | 59 | 133 | 4.0 | 12.0 | 0.00 | 0.03 | 0.03 | 70 | 1012.9 |
| 20260509160017 | 59 | 186 | 3.0 | 11.0 | 0.00 | 0.03 | 0.03 | 69 | 1013.0 |
| 20260509154514 | 57 | 150 | 2.0 | 11.0 | 0.00 | 0.03 | 0.03 | 72 | 1013.2 |
| 20260509153014 | 58 | 170 | 6.0 | 12.0 | 0.00 | 0.03 | 0.03 | 71 | 1013.3 |
| 20260509151515 | 58 | 139 | 4.0 | 13.0 | 0.00 | 0.03 | 0.03 | 72 | 1013.3 |
| 20260509150012 | 58 | 152 | 6.0 | 14.0 | 0.00 | 0.03 | 0.03 | 72 | 1013.2 |
| 20260509144509 | 57 | 137 | 5.0 | 9.0 | 0.00 | 0.03 | 0.03 | 74 | 1013.5 |
| 20260509143006 | 56 | 151 | 3.0 | 7.0 | 0.00 | 0.03 | 0.03 | 77 | 1013.3 |
| 20260509141505 | 55 | 152 | 2.0 | 7.0 | 0.00 | 0.03 | 0.03 | 77 | 1013.5 |
| 20260509140005 | 55 | 159 | 3.0 | 11.0 | 0.00 | 0.03 | 0.03 | 77 | 1013.8 |
| 20260509134502 | 55 | 173 | 3.0 | 7.0 | 0.00 | 0.03 | 0.03 | 79 | 1013.9 |
| 20260509133003 | 54 | 175 | 2.0 | 6.0 | 0.00 | 0.03 | 0.03 | 80 | 1014.1 |
| 20260509131558 | 53 | 149 | 1.0 | 5.0 | 0.00 | 0.03 | 0.03 | 83 | 1014.3 |